Simultaneous Nadir Overpasses (SNOs) Predictions

Prediction of SNOs near equator between AQUA and NPP Satellite Orbit:

Table of predicted SNOs near equator for the next 14.0 days since TLE Epoch: 3/9/2013
Index Date (AQUA) Time (AQUA) AQUA Lat,Lon Date (NPP) Time (NPP) NPP Lat,Lon Distance(km) Time Diff (sec)
1 03/10/2013 09:31:25 3.32, 60.61 03/10/2013 09:22:13 3.14, 59.85 87.40 552
2 03/13/2013 00:59:11 -6.18, 8.26 03/13/2013 00:49:12 -6.07, 7.65 68.32 599
3 03/13/2013 01:47:26 1.60, 176.86 03/13/2013 01:38:42 1.42, 175.99 98.50 524
4 03/15/2013 17:15:12 -4.49, 124.51 03/15/2013 17:05:41 -4.36, 123.80 79.72 571
5 03/18/2013 08:49:20 29.99, 66.86 03/18/2013 08:39:20 30.34, 65.92 98.37 600
6 03/18/2013 09:31:11 -2.77,-119.24 03/18/2013 09:22:08 -2.59,-120.04 91.25 543
7 03/21/2013 00:59:03
